Time,TemperatureF,DewpointF,PressureIn,WindDirection,WindDirectionDegrees,WindSpeedMPH,WindSpeedGustMPH,Humidity,HourlyPrecipIn,Conditions,Clouds,dailyrainin,SolarRadiationWatts/m^2,SoftwareType,DateUTC
2013-02-01 00:03:00,36.0,21.0,-100.00,West,262,7.0,17.0,54,0.00,,,0.05,0.000000,,2013-02-01 05:03:00,
2013-02-01 00:32:00,37.0,21.0,-100.00,West,271,8.0,18.0,52,0.00,,,0.02,0.000000,,2013-02-01 05:32:00,
2013-02-01 00:42:00,37.0,21.0,-100.00,West,271,8.0,18.0,52,0.00,,,0.02,0.000000,,2013-02-01 05:42:00,
2013-02-01 00:52:00,37.0,21.0,-100.00,West,271,8.0,18.0,52,0.00,,,0.02,0.000000,,2013-02-01 05:52:00,
2013-02-01 01:02:00,37.0,21.0,-100.00,West,271,8.0,18.0,52,0.00,,,0.02,0.000000,,2013-02-01 06:02:00,
2013-02-01 01:32:00,40.0,23.0,-100.00,West,268,9.0,17.0,51,0.00,,,0.01,0.000000,,2013-02-01 06:32:00,
2013-02-01 01:52:00,40.0,23.0,-100.00,West,268,9.0,17.0,51,0.00,,,0.01,0.000000,,2013-02-01 06:52:00,
2013-02-01 02:02:00,40.0,23.0,-100.00,West,268,9.0,17.0,51,0.00,,,0.01,0.000000,,2013-02-01 07:02:00,
2013-02-01 02:32:00,41.0,24.0,-100.00,West,281,14.0,31.0,50,0.00,,,0.00,0.000000,,2013-02-01 07:32:00,
2013-02-01 02:42:00,41.0,24.0,-100.00,West,281,14.0,31.0,50,0.00,,,0.00,0.000000,,2013-02-01 07:42:00,
2013-02-01 02:52:00,41.0,24.0,-100.00,West,281,14.0,31.0,50,0.00,,,0.00,0.000000,,2013-02-01 07:52:00,
2013-02-01 03:01:00,41.0,24.0,-100.00,West,281,14.0,31.0,50,0.00,,,0.00,0.000000,,2013-02-01 08:01:00,
2013-02-01 03:32:00,38.0,25.0,-100.00,West,280,9.0,25.0,60,0.00,,,0.00,0.000000,,2013-02-01 08:32:00,
2013-02-01 03:42:00,38.0,25.0,-100.00,West,280,9.0,25.0,60,0.00,,,0.00,0.000000,,2013-02-01 08:42:00,
2013-02-01 03:52:00,38.0,25.0,-100.00,West,280,9.0,25.0,60,0.00,,,0.00,0.000000,,2013-02-01 08:52:00,
2013-02-01 04:02:00,38.0,25.0,-100.00,West,280,9.0,25.0,60,0.00,,,0.00,0.000000,,2013-02-01 09:02:00,
2013-02-01 04:32:00,32.0,27.0,-100.00,NW,312,8.0,22.0,81,0.00,,,0.00,0.000000,,2013-02-01 09:32:00,
2013-02-01 04:42:00,32.0,27.0,-100.00,NW,312,8.0,22.0,81,0.00,,,0.00,0.000000,,2013-02-01 09:42:00,
2013-02-01 04:52:00,32.0,27.0,-100.00,NW,312,8.0,22.0,81,0.00,,,0.00,0.000000,,2013-02-01 09:52:00,
2013-02-01 05:01:00,32.0,27.0,-100.00,NW,312,8.0,22.0,81,0.00,,,0.00,0.000000,,2013-02-01 10:01:00,
2013-02-01 05:32:00,29.0,23.0,-100.00,NW,309,10.0,24.0,78,0.00,,,0.00,0.000000,,2013-02-01 10:32:00,
2013-02-01 05:43:00,29.0,23.0,-100.00,NW,309,10.0,24.0,78,0.00,,,0.00,0.000000,,2013-02-01 10:43:00,
2013-02-01 05:53:00,29.0,23.0,-100.00,NW,309,10.0,24.0,78,0.00,,,0.00,0.000000,,2013-02-01 10:53:00,
2013-02-01 06:02:00,29.0,23.0,-100.00,NW,309,10.0,24.0,78,0.00,,,0.00,0.000000,,2013-02-01 11:02:00,
2013-02-01 06:32:00,26.0,13.0,-100.00,NW,319,10.0,26.0,58,0.00,,,0.00,0.000000,,2013-02-01 11:32:00,
2013-02-01 06:42:00,26.0,13.0,-100.00,NW,319,10.0,26.0,58,0.00,,,0.00,0.000000,,2013-02-01 11:42:00,
2013-02-01 06:53:00,26.0,13.0,-100.00,NW,319,10.0,26.0,58,0.00,,,0.00,0.000000,,2013-02-01 11:53:00,
2013-02-01 07:03:00,26.0,13.0,-100.00,NW,319,10.0,26.0,58,0.00,,,0.00,0.000000,,2013-02-01 12:03:00,
2013-02-01 07:32:00,22.0,10.0,-100.00,NNW,343,10.0,21.0,59,0.00,,,0.00,0.000000,,2013-02-01 12:32:00,
2013-02-01 07:42:00,22.0,10.0,-100.00,NNW,343,10.0,21.0,59,0.00,,,0.00,0.000000,,2013-02-01 12:42:00,
2013-02-01 07:52:00,22.0,10.0,-100.00,NNW,343,10.0,21.0,59,0.00,,,0.00,0.000000,,2013-02-01 12:52:00,
2013-02-01 08:02:00,22.0,10.0,-100.00,NNW,343,10.0,21.0,59,0.00,,,0.00,0.000000,,2013-02-01 13:02:00,
2013-02-01 08:33:00,20.0,9.0,-100.00,NE,35,4.0,19.0,62,0.00,,,0.00,8.000000,,2013-02-01 13:33:00,
2013-02-01 08:43:00,20.0,9.0,-100.00,NE,35,4.0,19.0,62,0.00,,,0.00,8.000000,,2013-02-01 13:43:00,
2013-02-01 08:53:00,20.0,9.0,-100.00,NE,35,4.0,19.0,62,0.00,,,0.00,8.000000,,2013-02-01 13:53:00,
2013-02-01 09:03:00,20.0,9.0,-100.00,NE,35,4.0,19.0,62,0.00,,,0.00,8.000000,,2013-02-01 14:03:00,
2013-02-01 09:32:00,21.0,11.0,-100.00,NE,38,8.0,20.0,64,0.00,,,0.00,117.000000,,2013-02-01 14:32:00,
2013-02-01 09:42:00,21.0,11.0,-100.00,NE,38,8.0,20.0,64,0.00,,,0.00,117.000000,,2013-02-01 14:42:00,
2013-02-01 09:53:00,21.0,11.0,-100.00,NE,38,8.0,20.0,64,0.00,,,0.00,117.000000,,2013-02-01 14:53:00,
2013-02-01 10:03:00,21.0,11.0,-100.00,NE,38,8.0,20.0,64,0.00,,,0.00,117.000000,,2013-02-01 15:03:00,
2013-02-01 10:33:00,24.0,11.0,-100.00,NW,317,7.0,20.0,58,0.00,,,0.00,428.000000,,2013-02-01 15:33:00,
2013-02-01 10:42:00,24.0,11.0,-100.00,NW,317,7.0,20.0,58,0.00,,,0.00,428.000000,,2013-02-01 15:42:00,
2013-02-01 10:52:00,24.0,11.0,-100.00,NW,317,7.0,20.0,58,0.00,,,0.00,428.000000,,2013-02-01 15:52:00,
2013-02-01 11:03:00,24.0,11.0,-100.00,NW,317,7.0,20.0,58,0.00,,,0.00,428.000000,,2013-02-01 16:03:00,
2013-02-01 11:33:00,24.0,9.0,-100.00,NNW,327,8.0,16.0,52,0.00,,,0.00,636.000000,,2013-02-01 16:33:00,
2013-02-01 11:43:00,24.0,9.0,-100.00,NNW,327,8.0,16.0,52,0.00,,,0.00,636.000000,,2013-02-01 16:43:00,
2013-02-01 11:53:00,24.0,9.0,-100.00,NNW,327,8.0,16.0,52,0.00,,,0.00,636.000000,,2013-02-01 16:53:00,
2013-02-01 12:03:00,24.0,9.0,-100.00,NNW,327,8.0,16.0,52,0.00,,,0.00,636.000000,,2013-02-01 17:03:00,
2013-02-01 12:32:00,28.0,7.0,-100.00,NW,318,5.0,13.0,41,0.00,,,0.00,773.000000,,2013-02-01 17:32:00,
2013-02-01 12:42:00,28.0,7.0,-100.00,NW,318,5.0,13.0,41,0.00,,,0.00,773.000000,,2013-02-01 17:42:00,
2013-02-01 12:53:00,28.0,7.0,-100.00,NW,318,5.0,13.0,41,0.00,,,0.00,773.000000,,2013-02-01 17:53:00,
2013-02-01 13:03:00,28.0,7.0,-100.00,NW,318,5.0,13.0,41,0.00,,,0.00,773.000000,,2013-02-01 18:03:00,
2013-02-01 13:33:00,29.0,7.0,-100.00,NE,42,6.0,19.0,38,0.00,,,0.00,835.000000,,2013-02-01 18:33:00,
2013-02-01 13:42:00,29.0,7.0,-100.00,NE,42,6.0,19.0,38,0.00,,,0.00,835.000000,,2013-02-01 18:42:00,
2013-02-01 13:53:00,29.0,7.0,-100.00,NE,42,6.0,19.0,38,0.00,,,0.00,835.000000,,2013-02-01 18:53:00,
2013-02-01 14:03:00,29.0,7.0,-100.00,NE,42,6.0,19.0,38,0.00,,,0.00,835.000000,,2013-02-01 19:03:00,
2013-02-01 14:33:00,31.0,5.0,-100.00,NE,35,7.0,16.0,32,0.00,,,0.00,820.000000,,2013-02-01 19:33:00,
2013-02-01 14:42:00,31.0,5.0,-100.00,NE,35,7.0,16.0,32,0.00,,,0.00,820.000000,,2013-02-01 19:42:00,
2013-02-01 14:52:00,31.0,5.0,-100.00,NE,35,7.0,16.0,32,0.00,,,0.00,820.000000,,2013-02-01 19:52:00,
2013-02-01 15:02:00,31.0,5.0,-100.00,NE,35,7.0,16.0,32,0.00,,,0.00,820.000000,,2013-02-01 20:02:00,
2013-02-01 15:32:00,32.0,4.0,-100.00,NNW,348,5.0,19.0,30,0.00,,,-99.99,729.000000,,2013-02-01 20:32:00,
2013-02-01 15:42:00,32.0,4.0,-100.00,NNW,348,5.0,19.0,30,0.00,,,-99.99,729.000000,,2013-02-01 20:42:00,
2013-02-01 15:52:00,32.0,4.0,-100.00,NNW,348,5.0,19.0,30,0.00,,,-99.99,729.000000,,2013-02-01 20:52:00,
2013-02-01 16:02:00,32.0,4.0,-100.00,NNW,348,5.0,19.0,30,0.00,,,-99.99,729.000000,,2013-02-01 21:02:00,
2013-02-01 16:32:00,32.0,0.0,-100.00,ENE,63,6.0,15.0,25,0.00,,,0.00,566.000000,,2013-02-01 21:32:00,
2013-02-01 16:42:00,32.0,0.0,-100.00,ENE,63,6.0,15.0,25,0.00,,,0.00,566.000000,,2013-02-01 21:42:00,
2013-02-01 16:53:00,32.0,0.0,-100.00,ENE,63,6.0,15.0,25,0.00,,,0.00,566.000000,,2013-02-01 21:53:00,
2013-02-01 17:03:00,32.0,0.0,-100.00,ENE,63,6.0,15.0,25,0.00,,,0.00,566.000000,,2013-02-01 22:03:00,
2013-02-01 17:32:00,31.0,3.0,-100.00,East,87,4.0,14.0,30,0.00,,,0.00,348.000000,,2013-02-01 22:32:00,
2013-02-01 17:42:00,31.0,3.0,-100.00,East,87,4.0,14.0,30,0.00,,,0.00,348.000000,,2013-02-01 22:42:00,
2013-02-01 17:52:00,31.0,3.0,-100.00,East,87,4.0,14.0,30,0.00,,,0.00,348.000000,,2013-02-01 22:52:00,
2013-02-01 18:02:00,31.0,3.0,-100.00,East,87,4.0,14.0,30,0.00,,,0.00,348.000000,,2013-02-01 23:02:00,
2013-02-01 18:32:00,26.0,2.0,-100.00,NNW,331,2.0,10.0,34,0.00,,,0.00,99.000000,,2013-02-01 23:32:00,
2013-02-01 18:42:00,26.0,2.0,-100.00,NNW,331,2.0,10.0,34,0.00,,,0.00,99.000000,,2013-02-01 23:42:00,
2013-02-01 18:52:00,26.0,2.0,-100.00,NNW,331,2.0,10.0,34,0.00,,,0.00,99.000000,,2013-02-01 23:52:00,
2013-02-01 19:02:00,26.0,2.0,-100.00,NNW,331,2.0,10.0,34,0.00,,,0.00,99.000000,,2013-02-02 00:02:00,
2013-02-01 19:32:00,24.0,4.0,-100.00,WSW,248,2.0,7.0,42,0.00,,,0.00,1.000000,,2013-02-02 00:32:00,
2013-02-01 19:42:00,24.0,4.0,-100.00,WSW,248,2.0,7.0,42,0.00,,,0.00,1.000000,,2013-02-02 00:42:00,
2013-02-01 19:52:00,24.0,4.0,-100.00,WSW,248,2.0,7.0,42,0.00,,,0.00,1.000000,,2013-02-02 00:52:00,
2013-02-01 20:02:00,24.0,4.0,-100.00,WSW,248,2.0,7.0,42,0.00,,,0.00,1.000000,,2013-02-02 01:02:00,
2013-02-01 20:32:00,23.0,6.0,-100.00,WSW,247,2.0,5.0,47,0.00,,,0.00,0.000000,,2013-02-02 01:32:00,
2013-02-01 20:42:00,23.0,6.0,-100.00,WSW,247,2.0,5.0,47,0.00,,,0.00,0.000000,,2013-02-02 01:42:00,
2013-02-01 20:52:00,23.0,6.0,-100.00,WSW,247,2.0,5.0,47,0.00,,,0.00,0.000000,,2013-02-02 01:52:00,
2013-02-01 21:01:00,23.0,6.0,-100.00,WSW,247,2.0,5.0,47,0.00,,,0.00,0.000000,,2013-02-02 02:01:00,
2013-02-01 21:32:00,21.0,7.0,-100.00,ESE,122,0.0,1.0,55,0.00,,,0.00,0.000000,,2013-02-02 02:32:00,
2013-02-01 21:42:00,21.0,7.0,-100.00,ESE,122,0.0,1.0,55,0.00,,,0.00,0.000000,,2013-02-02 02:42:00,
2013-02-01 21:52:00,21.0,7.0,-100.00,ESE,122,0.0,1.0,55,0.00,,,0.00,0.000000,,2013-02-02 02:52:00,
2013-02-01 22:02:00,21.0,7.0,-100.00,ESE,122,0.0,1.0,55,0.00,,,0.00,0.000000,,2013-02-02 03:02:00,
2013-02-01 22:32:00,19.0,10.0,-100.00,ESE,112,1.0,2.0,67,0.00,,,0.00,0.000000,,2013-02-02 03:32:00,
2013-02-01 22:42:00,19.0,10.0,-100.00,ESE,112,1.0,2.0,67,0.00,,,0.00,0.000000,,2013-02-02 03:42:00,
2013-02-01 22:52:00,19.0,10.0,-100.00,ESE,112,1.0,2.0,67,0.00,,,0.00,0.000000,,2013-02-02 03:52:00,
2013-02-01 23:02:00,19.0,10.0,-100.00,ESE,112,1.0,2.0,67,0.00,,,0.00,0.000000,,2013-02-02 04:02:00,
2013-02-01 23:33:00,18.0,10.0,-100.00,ESE,114,1.0,3.0,71,0.00,,,0.00,0.000000,,2013-02-02 04:33:00,
2013-02-01 23:42:00,18.0,10.0,-100.00,ESE,114,1.0,3.0,71,0.00,,,0.00,0.000000,,2013-02-02 04:42:00,
2013-02-01 23:52:00,18.0,10.0,-100.00,ESE,114,1.0,3.0,71,0.00,,,0.00,0.000000,,2013-02-02 04:52:00,